sat.trackr.live / text

‹ back to catalog

ONEWEB-0359

NORAD 49285 · 2021-090G

PAYLOAD ACTIVE UNKNOWN

§ Identity

Operator
Country
UK
Launch date
2021-10-14
Launch site
VOSTO
Launch vehicle
Mass (kg)
RCS (m²)

Purposes: comms

External: N2YO · Heavens-Above · Gunter

§ Orbital elements

Epoch: 2026-09-08T14:03:22.739904Z

Period
109.03 min
Inclination
87.9138°
Eccentricity
0.0001948
Mean motion
13.20771381 rev/d
Perigee alt
1,180.3 km
Apogee alt
1,183.2 km
Semi-major
7,559.9 km
B*
-6.7762e-4
RAAN
257.7997°
Arg perigee
96.0747°
Mean anomaly
264.0608°
Rev number
24,154

§ Raw data

ONEWEB-03591 49285U 21090G   26251.58567986 -.00000263  00000+0 -67762-3 0  99932 49285  87.9138 257.7997 0001948  96.0747 264.0608 13.20771381241542

JSON: /api/v1/satellites/49285 · /tle

For live sub-satellite position, see the globe view (requires WebGL).

§ Visibility from observer

Set your observer location to see the next 7 days of passes ≥ 10°. The values pass through the URL so the page stays shareable.

No JS? Fill the form by hand. The geolocation button needs JavaScript.